Satellite: ISS
Catalog number: 25544
Epoch time:      08311.91500000
Element set:     599
Inclination:      051.6444 deg
RA of node:       004.7127 deg
Eccentricity:    0.0003473
Arg of perigee:   315.1862 deg
Mean anomaly:     038.7382 deg
Mean motion:   15.72414245 rev/day
Decay rate:      9.158e-05 rev/day^2
Epoch rev:           57098
Checksum:              285

Satellite: CO-58
Catalog number: 28895
Epoch time:      08310.74130004
Element set:     162
Inclination:      098.0810 deg
RA of node:       201.2721 deg
Eccentricity:    0.0017492
Arg of perigee:   330.6293 deg
Mean anomaly:     029.3957 deg
Mean motion:   14.59711673 rev/day
Decay rate:       1.57e-06 rev/day^2
Epoch rev:           16113
Checksum:              289

Satellite: FALCON
Catalog number: 30776
Epoch time:      08310.52981829
Element set:    0444
Inclination:      035.4337 deg
RA of node:       016.2206 deg
Eccentricity:    0.0000205
Arg of perigee:   173.2578 deg
Mean anomaly:     186.8141 deg
Mean motion:   15.03093783 rev/day
Decay rate:       4.15e-06 rev/day^2
Epoch rev:           09142
Checksum:              276

Satellite: MAST
Catalog number: 31126
Epoch time:      08311.67723188
Element set:     455
Inclination:      098.0222 deg
RA of node:       010.2887 deg
Eccentricity:    0.0093755
Arg of perigee:   250.0276 deg
Mean anomaly:     109.0820 deg
Mean motion:   14.53455554 rev/day
Decay rate:        7.0e-07 rev/day^2
Epoch rev:            8271
Checksum:              278

Satellite: CAPE1
Catalog number: 31130
Epoch time:      08310.94372507
Element set:    0457
Inclination:      098.0231 deg
RA of node:       008.2724 deg
Eccentricity:    0.0101954
Arg of perigee:   256.3381 deg
Mean anomaly:     102.6401 deg
Mean motion:   14.52004257 rev/day
Decay rate:       -2.0e-08 rev/day^2
Epoch rev:           08229
Checksum:              247

Satellite: COMPASS
Catalog number: 32787
Epoch time:      08310.14635127
Element set:    0200
Inclination:      097.9737 deg
RA of node:       009.5125 deg
Eccentricity:    0.0016770
Arg of perigee:   043.0635 deg
Mean anomaly:     317.1887 deg
Mean motion:   14.81490505 rev/day
Decay rate:       4.80e-06 rev/day^2
Epoch rev:           02827
Checksum:              288

Satellite: AAUSAT2
Catalog number: 32788
Epoch time:      08310.87509300
Element set:     192
Inclination:      097.9740 deg
RA of node:       010.2627 deg
Eccentricity:    0.0016395
Arg of perigee:   042.8436 deg
Mean anomaly:     317.4033 deg
Mean motion:   14.81602910 rev/day
Decay rate:       2.34e-06 rev/day^2
Epoch rev:            2838
Checksum:              283

Satellite: DO-64
Catalog number: 32789
Epoch time:      08311.83495387
Element set:     204
Inclination:      097.9747 deg
RA of node:       011.2674 deg
Eccentricity:    0.0016485
Arg of perigee:   037.4608 deg
Mean anomaly:     322.7737 deg
Mean motion:   14.81521521 rev/day
Decay rate:       4.17e-06 rev/day^2
Epoch rev:            2852
Checksum:              321

Satellite: CO-66
Catalog number: 32791
Epoch time:      08311.71842777
Element set:     187
Inclination:      097.9756 deg
RA of node:       011.0985 deg
Eccentricity:    0.0016887
Arg of perigee:   036.2061 deg
Mean anomaly:     324.0284 deg
Mean motion:   14.81338399 rev/day
Decay rate:       -3.7e-07 rev/day^2
Epoch rev:            2847
Checksum:              336

Satellite: RS-30
Catalog number: 32953
Epoch time:      08310.75016744
Element set:    0151
Inclination:      082.5048 deg
RA of node:       035.5512 deg
Eccentricity:    0.0017918
Arg of perigee:   307.7379 deg
Mean anomaly:     052.2078 deg
Mean motion:   12.42997893 rev/day
Decay rate:        1.0e-07 rev/day^2
Epoch rev:           02063
Checksum:              289

/EX



_______________________________________________
Via the Keps mailing list courtesy of AMSAT-NA
http://amsat.org/mailman/listinfo/keps

--- ViaMAIL!/WC v1.60d
 * Origin: Chowdanet (401-724-4410) telnet://chowdanet.com  (1:323/120)